Tracking 31028 objects as of 17-Jul-2025
HD Live streaming from Space Station
objects crossing your sky now

OPS 5798 (TRANSIT 5B-4)

Track OPS 5798 (TRANSIT 5B-4) now!
10-day predictions
OPS 5798 (TRANSIT 5B-4) is classified as:


NORAD ID: 897
Int'l Code: 1964-063B
Perigee: 1,049.8 km
Apogee: 1,081.9 km
Inclination: 90.2 °
Period: 106.4 minutes
Semi major axis: 7436 km
RCS: 0.5573 m2 (medium)
Launch date: October 6, 1964
Source: United States (US)
Launch site: AIR FORCE WESTERN TEST RANGE (AFWTR)
Your satellite tracking list
Your tracking list is empty




NASA's NSSDC Master Catalog

Two Line Element Set (TLE):
1   897U 64063B   25197.62050916  .00000019  00000-0  14665-4 0  9992
2   897  90.2280  67.6675 0021620  75.1408 337.4455 13.53690876   302
Source of the keplerian elements: AFSPC